When you browse on this site, cookies collect data to enhance your experience and personalize the content and advertising you see.
Visit our Privacy Policy to learn more. By continuing to use the site, you agree to this use of cookies and data.

Météo par heure à Velikaya Novoselka

Ce jour, 29 Septembre, Mardi

Heure Température Précipitation Vent Pression Humidité
00:00 +19°C° 0 mm 6 m/s 755 mmHg 45%
01:00 +17°C° 0 mm 6 m/s 755 mmHg 48%
02:00 +16°C° 0 mm 6 m/s 755 mmHg 51%
03:00 +15°C° 0 mm 6 m/s 755 mmHg 53%
04:00 +15°C° 0 mm 6 m/s 755 mmHg 54%
05:00 +14°C° 0 mm 6 m/s 754 mmHg 56%
06:00 +15°C° 0 mm 7 m/s 754 mmHg 56%
07:00 +15°C° 0 mm 7 m/s 754 mmHg 55%
08:00 +16°C° 0 mm 7 m/s 754 mmHg 55%
09:00 +17°C° 0 mm 7 m/s 754 mmHg 52%
10:00 +20°C° 0 mm 7 m/s 753 mmHg 49%
11:00 +21°C° 0 mm 7 m/s 753 mmHg 46%
12:00 +22°C° 0.1 mm 7 m/s 753 mmHg 44%
13:00 +22°C° 0.1 mm 7 m/s 752 mmHg 42%
14:00 +23°C° 0.1 mm 7 m/s 752 mmHg 39%
15:00 +23°C° 0 mm 7 m/s 751 mmHg 37%
16:00 +23°C° 0 mm 7 m/s 751 mmHg 35%
17:00 +23°C° 0 mm 7 m/s 750 mmHg 33%
18:00 +22°C° 0 mm 7 m/s 750 mmHg 34%
19:00 +22°C° 0 mm 8 m/s 750 mmHg 34%
20:00 +22°C° 0 mm 8 m/s 750 mmHg 35%
21:00 +21°C° 0 mm 9 m/s 749 mmHg 36%
22:00 +21°C° 0 mm 9 m/s 749 mmHg 38%
23:00 +19°C° 0 mm 9 m/s 748 mmHg 40%

Demain, 30 Septembre, Mercredi

Heure Température Précipitation Vent Pression Humidité
00:00 +18°C° 0 mm 9 m/s 748 mmHg 43%
01:00 +17°C° 0 mm 9 m/s 748 mmHg 46%
02:00 +16°C° 0 mm 8 m/s 748 mmHg 49%
03:00 +16°C° 0 mm 9 m/s 747 mmHg 52%
04:00 +15°C° 0 mm 9 m/s 747 mmHg 54%
05:00 +13°C° 0 mm 9 m/s 747 mmHg 57%
06:00 +15°C° 0.1 mm 9 m/s 747 mmHg 57%
07:00 +14°C° 0.1 mm 10 m/s 747 mmHg 58%
08:00 +14°C° 0.1 mm 10 m/s 747 mmHg 59%
09:00 +15°C° 0.9 mm 9 m/s 747 mmHg 61%
10:00 +15°C° 0.9 mm 8 m/s 747 mmHg 64%
11:00 +15°C° 0.9 mm 7 m/s 747 mmHg 66%
12:00 +16°C° 1.7 mm 6 m/s 747 mmHg 64%
13:00 +17°C° 1.7 mm 6 m/s 747 mmHg 62%
14:00 +19°C° 1.7 mm 5 m/s 746 mmHg 60%
15:00 +17°C° 3.2 mm 5 m/s 746 mmHg 68%
16:00 +16°C° 3.2 mm 5 m/s 746 mmHg 76%
17:00 +16°C° 3.2 mm 6 m/s 746 mmHg 85%
18:00 +16°C° 0.8 mm 6 m/s 747 mmHg 83%
19:00 +16°C° 0.8 mm 6 m/s 747 mmHg 82%
20:00 +16°C° 0.8 mm 7 m/s 747 mmHg 81%
21:00 +16°C° 0.2 mm 6 m/s 747 mmHg 75%
22:00 +16°C° 0.2 mm 6 m/s 748 mmHg 70%
23:00 +16°C° 0.2 mm 5 m/s 748 mmHg 65%

Après-demain, 1 Octobre, Jeudi

Heure Température Précipitation Vent Pression Humidité
00:00 +16°C° 0 mm 6 m/s 748 mmHg 63%
01:00 +15°C° 0 mm 7 m/s 748 mmHg 61%
02:00 +15°C° 0 mm 8 m/s 748 mmHg 59%
03:00 +14°C° 0.1 mm 7 m/s 748 mmHg 62%
04:00 +14°C° 0.1 mm 7 m/s 748 mmHg 65%
05:00 +12°C° 0.1 mm 7 m/s 748 mmHg 68%
06:00 +14°C° 0 mm 7 m/s 748 mmHg 67%
07:00 +15°C° 0 mm 7 m/s 749 mmHg 67%
08:00 +16°C° 0 mm 8 m/s 749 mmHg 66%
09:00 +16°C° 0 mm 8 m/s 749 mmHg 67%
10:00 +17°C° 0 mm 8 m/s 749 mmHg 68%
11:00 +17°C° 0 mm 7 m/s 749 mmHg 69%
12:00 +18°C° 0 mm 7 m/s 749 mmHg 64%
13:00 +20°C° 0 mm 7 m/s 749 mmHg 59%
14:00 +21°C° 0 mm 7 m/s 750 mmHg 53%
15:00 +20°C° 0 mm 6 m/s 749 mmHg 54%
16:00 +20°C° 0 mm 4 m/s 749 mmHg 54%
17:00 +19°C° 0 mm 3 m/s 749 mmHg 54%
18:00 +19°C° 0 mm 3 m/s 749 mmHg 55%
19:00 +18°C° 0 mm 4 m/s 749 mmHg 56%
20:00 +17°C° 0 mm 4 m/s 749 mmHg 57%
21:00 +18°C° 0 mm 4 m/s 749 mmHg 55%
22:00 +18°C° 0 mm 4 m/s 749 mmHg 53%
23:00 +17°C° 0 mm 5 m/s 749 mmHg 51%

2 Octobre, Vendredi

Heure Température Précipitation Vent Pression Humidité
00:00 +17°C° 0 mm 5 m/s 749 mmHg 52%
01:00 +16°C° 0 mm 6 m/s 749 mmHg 53%
02:00 +16°C° 0 mm 6 m/s 749 mmHg 55%
03:00 +15°C° 0.4 mm 6 m/s 749 mmHg 59%
04:00 +15°C° 0.4 mm 5 m/s 750 mmHg 64%
05:00 +14°C° 0.4 mm 5 m/s 750 mmHg 68%
06:00 +14°C° 0.3 mm 5 m/s 750 mmHg 66%
07:00 +15°C° 0.3 mm 6 m/s 750 mmHg 65%
08:00 +15°C° 0.3 mm 6 m/s 750 mmHg 63%
09:00 +17°C° 0 mm 6 m/s 750 mmHg 59%
10:00 +19°C° 0 mm 6 m/s 750 mmHg 56%
11:00 +20°C° 0 mm 6 m/s 750 mmHg 53%
12:00 +21°C° 0.1 mm 6 m/s 750 mmHg 51%
13:00 +22°C° 0.1 mm 6 m/s 750 mmHg 49%
14:00 +22°C° 0.1 mm 6 m/s 750 mmHg 47%
15:00 +21°C° 0.1 mm 5 m/s 750 mmHg 52%
16:00 +20°C° 0.1 mm 4 m/s 750 mmHg 57%
17:00 +19°C° 0.1 mm 4 m/s 750 mmHg 62%
18:00 +19°C° 0.2 mm 3 m/s 751 mmHg 65%
19:00 +18°C° 0.2 mm 3 m/s 751 mmHg 68%
20:00 +18°C° 0.2 mm 3 m/s 751 mmHg 70%
21:00 +18°C° 0.1 mm 3 m/s 751 mmHg 69%
22:00 +17°C° 0.1 mm 2 m/s 751 mmHg 68%
23:00 +17°C° 0.1 mm 2 m/s 751 mmHg 66%

3 Octobre, Samedi

Heure Température Précipitation Vent Pression Humidité
00:00 +17°C° 0.5 mm 2 m/s 751 mmHg 68%
01:00 +17°C° 0.5 mm 2 m/s 751 mmHg 69%
02:00 +18°C° 0.5 mm 1 m/s 751 mmHg 71%
03:00 +16°C° 0.1 mm 2 m/s 752 mmHg 71%
04:00 +16°C° 0.1 mm 2 m/s 752 mmHg 71%
05:00 +16°C° 0.1 mm 2 m/s 752 mmHg 71%
06:00 +17°C° 0 mm 3 m/s 752 mmHg 69%
07:00 +17°C° 0 mm 3 m/s 752 mmHg 67%
08:00 +18°C° 0 mm 3 m/s 752 mmHg 65%
09:00 +19°C° 0 mm 2 m/s 753 mmHg 61%
10:00 +21°C° 0 mm 2 m/s 753 mmHg 58%
11:00 +23°C° 0 mm 1 m/s 753 mmHg 54%
12:00 +23°C° 0 mm 1 m/s 753 mmHg 52%
13:00 +24°C° 0 mm 1 m/s 753 mmHg 49%
14:00 +25°C° 0 mm 1 m/s 753 mmHg 47%
15:00 +24°C° 0.1 mm 1 m/s 753 mmHg 50%
16:00 +23°C° 0.1 mm 1 m/s 753 mmHg 52%
17:00 +22°C° 0.1 mm 1 m/s 753 mmHg 55%
18:00 +21°C° 0 mm 1 m/s 753 mmHg 58%
19:00 +21°C° 0 mm 1 m/s 753 mmHg 60%
20:00 +20°C° 0 mm 1 m/s 754 mmHg 63%
21:00 +20°C° 0 mm 1 m/s 754 mmHg 65%
22:00 +19°C° 0 mm 1 m/s 754 mmHg 67%
23:00 +18°C° 0 mm 1 m/s 754 mmHg 69%

4 Octobre, Dimanche

Heure Température Précipitation Vent Pression Humidité
00:00 +18°C° 0 mm 1 m/s 754 mmHg 70%
01:00 +18°C° 0 mm 1 m/s 754 mmHg 71%
02:00 +16°C° 0 mm 1 m/s 754 mmHg 72%
03:00 +16°C° 0 mm 1 m/s 754 mmHg 73%
04:00 +15°C° 0 mm 0 m/s 754 mmHg 74%
05:00 +14°C° 0 mm 0 m/s 754 mmHg 75%
06:00 +16°C° 0 mm 0 m/s 754 mmHg 70%
07:00 +17°C° 0 mm 0 m/s 755 mmHg 65%
08:00 +20°C° 0 mm 1 m/s 755 mmHg 60%
09:00 +22°C° 0 mm 1 m/s 755 mmHg 55%
10:00 +23°C° 0 mm 1 m/s 755 mmHg 50%
11:00 +24°C° 0 mm 1 m/s 755 mmHg 45%
12:00 +24°C° 0 mm 1 m/s 755 mmHg 44%
13:00 +25°C° 0 mm 1 m/s 755 mmHg 42%
14:00 +25°C° 0 mm 1 m/s 754 mmHg 40%
15:00 +24°C° 0 mm 1 m/s 754 mmHg 43%
16:00 +23°C° 0 mm 1 m/s 754 mmHg 46%
17:00 +22°C° 0 mm 1 m/s 754 mmHg 49%
18:00 +21°C° 0 mm 1 m/s 755 mmHg 50%
19:00 +21°C° 0 mm 1 m/s 755 mmHg 52%
20:00 +20°C° 0 mm 1 m/s 755 mmHg 54%
21:00 +20°C° 0 mm 1 m/s 755 mmHg 54%
22:00 +20°C° 0 mm 1 m/s 755 mmHg 55%
23:00 +20°C° 0 mm 1 m/s 755 mmHg 55%
Voir plus